All Stations Radar Satellite Rainfall Station Map Enhanced Site
Observations: Wind Gusts Humidity Temperature    
Forecasts: Wind Gusts Humidity Temperature    

Mt. Soledad (578) Station Data (Station Map)

Red Flag Warning: No
Fire Weather Zone: 243
SDGE Region: Beach Cities
Lat/Lon: 32.814/-117.241

Observations

Time (PDT)Wind Spd/GustTempRHFuel Moisture
9/23 7:10amNNW 2 G 464°93%18.32%
9/23 7:00amNNW 1 G 364°93%18.31%
9/23 6:50amN 2 G 364°93%18.23%
9/23 6:40amN 1 G 364°93%18.12%
9/23 6:30amNNE 1 G 264°93%18.02%
9/23 6:20amNE 1 G 264°92%17.88%
9/23 6:10amNE 2 G 365°92%17.74%
9/23 6:00amNNE 1 G 265°92%17.63%
9/23 5:50amN 2 G 365°92%17.49%
9/23 5:40amNNE 2 G 365°91%17.36%
9/23 5:30amN 3 G 565°91%17.26%
9/23 5:20amN 2 G 365°91%17.1%
9/23 5:10amN 2 G 365°91%16.99%
9/23 5:00amN 2 G 465°90%16.9%
9/23 4:50amN 3 G 665°90%16.82%
9/23 4:40amN 2 G 366°90%16.71%
9/23 4:30amNNE 2 G 466°90%16.63%
9/23 4:20amN 3 G 666°90%16.6%
9/23 4:10amNNE 2 G 466°89%16.55%
9/23 4:00amN 3 G 566°89%16.53%
9/23 3:50amNNW 3 G 466°89%16.48%
9/23 3:40amNNW 2 G 466°89%16.46%
9/23 3:30amNNE 2 G 466°89%16.41%
9/23 3:20amN 2 G 466°89%16.38%
9/23 3:10amN 3 G 566°89%16.36%
9/23 3:00amN 2 G 466°89%16.36%
9/23 2:50amNNW 3 G 566°90%16.36%
9/23 2:40amN 3 G 566°90%16.37%
9/23 2:30amN 3 G 666°90%16.36%
9/23 2:20amN 3 G 566°89%16.34%
9/23 2:10amN 3 G 566°89%16.3%
9/23 2:00amNNW 3 G 566°89%16.3%
9/23 1:50amNNW 3 G 566°89%16.28%
9/23 1:40amNNW 3 G 667°89%16.3%
9/23 1:30amN 3 G 567°89%16.32%
9/23 1:20amNNW 4 G 567°90%16.33%
9/23 1:10amN 3 G 567°90%16.33%
9/23 1:00amNNW 2 G 567°90%16.34%
9/23 12:50amN 2 G 367°90%16.31%
9/23 12:40amN 2 G 467°90%16.29%
9/23 12:30amN 1 G 367°90%16.29%
9/23 12:20amNNW 2 G 467°91%16.26%
9/23 12:10amN 2 G 567°92%16.21%
9/23 12:00amNNW 2 G 566°92%16.16%
9/22 11:50pmNNW 3 G 466°92%16.04%
9/22 11:40pmNNW 2 G 466°92%15.93%
9/22 11:30pmNNW 0 G 266°92%15.72%
9/22 11:20pmNNW 1 G 266°92%15.57%
9/22 11:10pmNNW 0 G 066°92%15.41%
9/22 11:00pmN 0 G 066°92%15.24%
9/22 10:50pmN 0 G 066°92%15.05%
9/22 10:40pmNE 0 G 166°92%14.93%
9/22 10:30pmN 0 G 267°91%14.75%
9/22 10:20pmENE 0 G 167°91%14.58%
9/22 10:10pmSE 0 G 167°91%14.43%
9/22 10:00pmNW 1 G 367°91%14.26%
9/22 9:50pmNW 1 G 267°91%14.11%
9/22 9:40pmNW 0 G 167°90%13.91%
9/22 9:30pmSSW 0 G 267°90%13.76%
9/22 9:20pmSE 0 G 167°90%13.6%
9/22 9:10pmW 0 G 167°89%13.41%
9/22 9:00pmNW 1 G 467°89%13.3%
9/22 8:50pmNW 1 G 467°89%13.16%
9/22 8:40pmNW 2 G 568°88%13.04%
9/22 8:30pmNW 3 G 568°88%12.89%
9/22 8:20pmNW 3 G 868°88%12.75%
9/22 8:10pmNW 3 G 768°88%12.64%
9/22 8:00pmNNW 3 G 768°88%12.46%
9/22 7:50pmNNW 3 G 568°87%12.3%
9/22 7:40pmNNW 3 G 568°87%12.15%
9/22 7:30pmNNW 3 G 568°86%11.98%
9/22 7:20pmNNW 3 G 568°85%11.82%
9/22 7:10pmNNW 3 G 568°85%11.67%
9/22 7:00pmNNW 3 G 769°84%11.5%
9/22 6:50pmNNW 3 G 769°83%11.4%
9/22 6:40pmNW 3 G 769°82%11.29%
9/22 6:30pmNW 3 G 870°82%11.19%
9/22 6:20pmNW 4 G 770°79%11.09%
9/22 6:10pmNW 4 G 871°78%10.98%
9/22 6:00pmWNW 4 G 1071°77%10.9%
9/22 5:50pmNW 3 G 672°76%10.81%
9/22 5:40pmNW 4 G 772°76%10.81%
9/22 5:30pmNW 5 G 1072°76%10.73%
9/22 5:20pmNW 5 G 972°74%10.77%
9/22 5:10pmNW 4 G 972°75%10.79%
9/22 5:00pmNW 7 G 1272°76%10.72%
9/22 4:50pmWNW 7 G 1372°76%10.75%
9/22 4:40pmNW 7 G 1172°75%10.76%
9/22 4:30pmWNW 7 G 1472°75%10.74%
9/22 4:20pmWNW 7 G 1272°75%10.74%
9/22 4:10pmWNW 7 G 1472°74%10.77%
9/22 4:00pmWNW 5 G 1373°73%10.85%
9/22 3:50pmWNW 8 G 1472°74%10.81%
9/22 3:40pmNW 7 G 1173°73%10.88%
9/22 3:30pmWNW 8 G 1473°73%10.85%
9/22 3:20pmNW 7 G 1173°74%10.88%
9/22 3:10pmWNW 7 G 1473°73%10.88%
9/22 3:00pmNW 7 G 1273°72%10.91%
9/22 2:50pmNW 6 G 1173°72%11.03%
9/22 2:40pmNW 6 G 1173°71%11.08%
9/22 2:30pmWNW 6 G 1174°71%11.14%
9/22 2:20pmNW 6 G 1074°70%11.17%
9/22 2:10pmNW 5 G 973°71%11.25%
9/22 2:00pmWNW 5 G 873°72%11.27%
9/22 1:50pmNW 6 G 1073°71%11.29%
9/22 1:40pmWNW 6 G 973°71%11.27%
9/22 1:30pmWNW 5 G 974°70%11.33%
9/22 1:20pmNNW 6 G 1473°72%11.4%
9/22 1:10pmNW 6 G 1172°73%11.4%
9/22 1:00pmNW 6 G 1272°73%11.39%
9/22 12:50pmNW 6 G 1172°73%11.42%
9/22 12:40pmNW 6 G 1272°75%11.5%
9/22 12:30pmWNW 7 G 1271°75%11.47%
9/22 12:20pmNW 7 G 1272°74%11.58%
9/22 12:10pmWNW 7 G 1272°74%11.7%
9/22 12:00pmWNW 7 G 1371°75%11.85%
9/22 11:50amWNW 7 G 1271°75%11.95%
9/22 11:40amWNW 6 G 1372°73%11.99%
9/22 11:30amW 5 G 1072°73%12.08%
9/22 11:20amW 5 G 1072°74%12.16%
9/22 11:10amWNW 6 G 1071°74%12.3%
9/22 11:00amWNW 6 G 1071°74%12.38%
9/22 10:50amWNW 5 G 1072°74%12.52%
9/22 10:40amNW 5 G 872°73%12.65%
9/22 10:30amWNW 4 G 872°74%12.83%
9/22 10:20amW 4 G 871°74%12.98%
9/22 10:10amWNW 3 G 671°75%13.19%
9/22 10:00amWNW 4 G 770°75%13.41%
9/22 9:50amWNW 4 G 770°76%13.66%
9/22 9:40amWNW 4 G 870°76%13.87%
9/22 9:30amWNW 3 G 769°77%14.18%
9/22 9:20amWNW 3 G 769°78%14.33%
9/22 9:10amW 2 G 469°78%14.5%
9/22 9:00amW 3 G 569°79%14.72%
9/22 8:50amW 3 G 569°79%15%
9/22 8:40amNW 2 G 468°80%15.31%
9/22 8:30amWNW 2 G 568°81%15.55%
9/22 8:20amN 2 G 568°81%15.73%
9/22 8:10amNW 2 G 468°82%15.91%
9/22 8:00amNNW 1 G 467°82%16.12%
9/22 7:50amNNE 2 G 567°83%16.28%
9/22 7:40amNE 1 G 267°84%16.44%
9/22 7:30amNE 2 G 367°84%16.55%
9/22 7:20amNE 0 G 167°84%16.63%
9/22 7:10amN 1 G 467°84%16.72%
9/22 7:00amNE 1 G 267°84%16.77%
9/22 6:50amNW 1 G 366°85%16.83%
9/22 6:40amN 3 G 566°85%16.84%
9/22 6:30amN 2 G 367°85%16.84%
9/22 6:20amNNW 2 G 466°86%16.87%
9/22 6:10amNNW 1 G 266°87%16.88%
9/22 6:00amNNW 0 G 266°87%16.84%